| time (UTC) | temp F | wind direction | speed MPH | gust MPH | rain 1hr in | rain 24hr in | rain mn in | humidity % | barometer mb |
| 20260504050004 | 54 | 360 | 4.0 | 16.0 | 0.00 | 0.00 | 0.00 | 46 | 1009.0 |
| 20260504045215 | 54 | 360 | 4.0 | 16.0 | 0.00 | 0.00 | 0.00 | 47 | 1008.9 |
| 20260504044005 | 54 | 360 | 3.0 | 10.0 | 0.00 | 0.00 | 0.00 | 48 | 1009.0 |
| 20260504043006 | 53 | 360 | 2.0 | 7.0 | 0.00 | 0.00 | 0.00 | 50 | 1009.0 |
| 20260504042215 | 53 | 360 | 3.0 | 9.0 | 0.00 | 0.00 | 0.00 | 52 | 1009.1 |
| 20260504041005 | 53 | 360 | 4.0 | 6.0 | 0.00 | 0.00 | 0.00 | 53 | 1009.0 |
| 20260504040007 | 54 | 360 | 3.0 | 11.0 | 0.00 | 0.00 | 0.00 | 51 | 1009.3 |
| 20260504035214 | 53 | 360 | 3.0 | 10.0 | 0.00 | 0.00 | 0.00 | 53 | 1009.1 |
| 20260504034214 | 53 | 360 | 2.0 | 10.0 | 0.00 | 0.00 | 0.00 | 54 | 1009.2 |
| 20260504033005 | 52 | 360 | 2.0 | 11.0 | 0.00 | 0.00 | 0.00 | 55 | 1009.4 |
| 20260504032003 | 52 | 360 | 2.0 | 6.0 | 0.00 | 0.00 | 0.00 | 56 | 1009.6 |
| 20260504031214 | 52 | 360 | 2.0 | 7.0 | 0.00 | 0.00 | 0.00 | 57 | 1009.5 |
| 20260504030006 | 52 | 360 | 1.0 | 4.0 | 0.00 | 0.00 | 0.00 | 59 | 1009.5 |
| 20260504025006 | 51 | 360 | 1.0 | 6.0 | 0.00 | 0.00 | 0.00 | 61 | 1009.6 |
| 20260504024003 | 51 | 360 | 1.0 | 6.0 | 0.00 | 0.00 | 0.00 | 62 | 1009.6 |
| 20260504023005 | 51 | 360 | 1.0 | 7.0 | 0.00 | 0.00 | 0.00 | 62 | 1009.9 |
| 20260504022004 | 51 | 360 | 2.0 | 8.0 | 0.00 | 0.00 | 0.00 | 65 | 1010.0 |
| 20260504021004 | 51 | 360 | 3.0 | 11.0 | 0.00 | 0.00 | 0.00 | 66 | 1010.2 |
| 20260504020003 | 51 | 360 | 3.0 | 15.0 | 0.00 | 0.00 | 0.00 | 66 | 1010.2 |
| 20260504015214 | 51 | 360 | 4.0 | 18.0 | 0.00 | 0.00 | 0.00 | 65 | 1010.3 |
| 20260504014213 | 53 | 360 | 7.0 | 22.0 | 0.00 | 0.00 | 0.00 | 58 | 1010.7 |
| 20260504013004 | 54 | 360 | 5.0 | 15.0 | 0.00 | 0.00 | 0.00 | 52 | 1010.5 |
| 20260504012213 | 54 | 360 | 4.0 | 12.0 | 0.00 | 0.00 | 0.00 | 48 | 1010.3 |
| 20260504011003 | 55 | 360 | 6.0 | 20.0 | 0.00 | 0.00 | 0.00 | 46 | 1009.8 |
| 20260504010003 | 55 | 360 | 8.0 | 26.0 | 0.00 | 0.00 | 0.00 | 44 | 1009.8 |
| 20260504005215 | 55 | 360 | 8.0 | 20.0 | 0.00 | 0.00 | 0.00 | 43 | 1009.9 |
| 20260504004004 | 55 | 360 | 7.0 | 22.0 | 0.00 | 0.00 | 0.00 | 42 | 1009.5 |
| 20260504003004 | 55 | 360 | 5.0 | 17.0 | 0.00 | 0.00 | 0.00 | 40 | 1009.5 |
| 20260504002003 | 55 | 360 | 3.0 | 13.0 | 0.00 | 0.00 | 0.00 | 40 | 1009.3 |
| 20260504001004 | 54 | 360 | 2.0 | 7.0 | 0.00 | 0.00 | 0.00 | 41 | 1009.3 |
| 20260504000003 | 54 | 360 | 2.0 | 10.0 | 0.00 | 0.00 | 0.00 | 42 | 1009.1 |
| 20260503235005 | 54 | 360 | 1.0 | 6.0 | 0.00 | 0.00 | 0.00 | 43 | 1009.0 |
| 20260503234004 | 54 | 360 | 3.0 | 11.0 | 0.00 | 0.00 | 0.00 | 43 | 1009.1 |
| 20260503233215 | 55 | 360 | 4.0 | 11.0 | 0.00 | 0.00 | 0.00 | 43 | 1009.5 |
| 20260503232004 | 55 | 360 | 6.0 | 17.0 | 0.00 | 0.00 | 0.00 | 41 | 1009.8 |
| 20260503231004 | 55 | 360 | 5.0 | 15.0 | 0.00 | 0.00 | 0.00 | 39 | 1009.9 |
| 20260503230004 | 55 | 360 | 3.0 | 9.0 | 0.00 | 0.00 | 0.00 | 39 | 1009.9 |
| 20260503225005 | 56 | 360 | 3.0 | 7.0 | 0.00 | 0.00 | 0.00 | 39 | 1009.6 |
| 20260503224004 | 56 | 360 | 2.0 | 10.0 | 0.00 | 0.00 | 0.00 | 38 | 1009.5 |
| 20260503223005 | 56 | 360 | 3.0 | 9.0 | 0.00 | 0.00 | 0.00 | 38 | 1009.5 |
| 20260503222007 | 57 | 360 | 3.0 | 10.0 | 0.00 | 0.00 | 0.00 | 37 | 1009.4 |
| 20260503221003 | 57 | 360 | 6.0 | 10.0 | 0.00 | 0.00 | 0.00 | 37 | 1009.3 |
| 20260503220216 | 57 | 360 | 5.0 | 12.0 | 0.00 | 0.00 | 0.00 | 37 | 1009.3 |
| 20260503215006 | 56 | 360 | 4.0 | 12.0 | 0.00 | 0.00 | 0.00 | 38 | 1009.5 |
| 20260503214214 | 56 | 360 | 3.0 | 8.0 | 0.00 | 0.00 | 0.00 | 38 | 1009.5 |
| 20260503213004 | 56 | 360 | 4.0 | 10.0 | 0.00 | 0.00 | 0.00 | 38 | 1009.6 |
| 20260503212214 | 56 | 360 | 3.0 | 9.0 | 0.00 | 0.00 | 0.00 | 38 | 1009.5 |
| 20260503211214 | 57 | 360 | 4.0 | 12.0 | 0.00 | 0.00 | 0.00 | 38 | 1009.6 |
| 20260503210216 | 57 | 360 | 4.0 | 13.0 | 0.00 | 0.00 | 0.00 | 39 | 1009.7 |
| 20260503205003 | 57 | 360 | 5.0 | 14.0 | 0.00 | 0.00 | 0.00 | 39 | 1009.6 |
| 20260503204004 | 56 | 360 | 4.0 | 10.0 | 0.00 | 0.00 | 0.00 | 40 | 1009.9 |
| 20260503203003 | 56 | 360 | 3.0 | 9.0 | 0.00 | 0.00 | 0.00 | 40 | 1010.0 |
| 20260503202003 | 57 | 360 | 5.0 | 10.0 | 0.00 | 0.00 | 0.00 | 39 | 1009.9 |
| 20260503201003 | 56 | 360 | 5.0 | 10.0 | 0.00 | 0.00 | 0.00 | 39 | 1010.2 |
| 20260503200004 | 56 | 360 | 4.0 | 10.0 | 0.00 | 0.00 | 0.00 | 39 | 1010.4 |
| 20260503195005 | 55 | 360 | 4.0 | 14.0 | 0.00 | 0.00 | 0.00 | 37 | 1010.3 |
| 20260503194003 | 56 | 360 | 5.0 | 14.0 | 0.00 | 0.00 | 0.00 | 38 | 1010.5 |
| 20260503193003 | 56 | 360 | 4.0 | 14.0 | 0.00 | 0.00 | 0.00 | 38 | 1010.6 |
| 20260503192003 | 55 | 360 | 5.0 | 15.0 | 0.00 | 0.00 | 0.00 | 35 | 1010.6 |
| 20260503191004 | 57 | 360 | 5.0 | 16.0 | 0.00 | 0.00 | 0.00 | 37 | 1010.6 |
| 20260503190004 | 58 | 360 | 4.0 | 13.0 | 0.00 | 0.00 | 0.00 | 37 | 1010.7 |
| 20260503185003 | 56 | 360 | 6.0 | 18.0 | 0.00 | 0.00 | 0.00 | 36 | 1010.7 |
| 20260503184004 | 56 | 360 | 6.0 | 17.0 | 0.00 | 0.00 | 0.00 | 37 | 1010.8 |
| 20260503183003 | 56 | 360 | 5.0 | 15.0 | 0.00 | 0.00 | 0.00 | 33 | 1011.1 |
| 20260503182003 | 58 | 360 | 6.0 | 17.0 | 0.00 | 0.00 | 0.00 | 32 | 1011.2 |
| 20260503181005 | 56 | 360 | 8.0 | 14.0 | 0.00 | 0.00 | 0.00 | 34 | 1011.0 |
| 20260503180004 | 55 | 360 | 6.0 | 16.0 | 0.00 | 0.00 | 0.00 | 33 | 1011.3 |
| 20260503175004 | 55 | 360 | 7.0 | 16.0 | 0.00 | 0.00 | 0.00 | 33 | 1011.3 |
| 20260503174214 | 56 | 360 | 5.0 | 14.0 | 0.00 | 0.00 | 0.00 | 35 | 1011.5 |
| 20260503173004 | 54 | 360 | 5.0 | 13.0 | 0.00 | 0.00 | 0.00 | 33 | 1011.6 |
| 20260503172005 | 53 | 360 | 5.0 | 14.0 | 0.00 | 0.00 | 0.00 | 34 | 1011.7 |
| 20260503171005 | 53 | 360 | 4.0 | 13.0 | 0.00 | 0.00 | 0.00 | 34 | 1011.9 |
| 20260503170214 | 52 | 360 | 3.0 | 16.0 | 0.00 | 0.00 | 0.00 | 34 | 1011.9 |
| 20260503151005 | 49 | 360 | 4.0 | 10.0 | 0.00 | 0.00 | 0.00 | 38 | 1013.3 |
| 20260503150216 | 49 | 360 | 4.0 | 10.0 | 0.00 | 0.00 | 0.00 | 38 | 1013.5 |
| 20260503140215 | 46 | 360 | 5.0 | 13.0 | 0.00 | 0.00 | 0.00 | 47 | 1013.6 |
| 20260503131004 | 46 | 360 | 4.0 | 9.0 | 0.00 | 0.00 | 0.00 | 55 | 1013.8 |
| 20260503120214 | 44 | 360 | 4.0 | 10.0 | 0.00 | 0.00 | 0.00 | 64 | 1013.6 |
| 20260503081003 | 39 | 360 | 1.0 | 3.0 | 0.00 | 0.00 | 0.00 | 78 | 1013.1 |
| 20260503072004 | 40 | 360 | 2.0 | 8.0 | 0.00 | 0.00 | 0.00 | 77 | 1013.1 |
| 20260503071004 | 40 | 360 | 2.0 | 6.0 | 0.00 | 0.00 | 0.00 | 77 | 1013.1 |
| 20260503070212 | 40 | 360 | 2.0 | 6.0 | 0.00 | 0.00 | 0.00 | 78 | 1012.9 |